遥感四十三号01组-H (YAOGAN-43 O1H)

导读 | 豆包AI

YAOGAN-43 O1H(遥感四十三号01星)是中国于2024年8月16日发射的遥感卫星,隶属于中国遥感卫星系列。作为中国自主研制的对地观测航天器,该卫星入轨后将主要承担地理国情监测、国土资源普查、农作物估产以及防灾减灾等领域的遥感任务,可提供稳定的空间观测数据,助力国家经济社会发展和生态环境保护,进一步完善我国遥感观测体系布局。

Basic Information
目录编号:
60465
目录名称:
YAOGAN-43 O1H
国际标识:
2024-148H
轨道中心:
EARTH
卫星名称:
遥感四十三号01组-H (YAOGAN-43 O1H)
卫星全名:
遥感四十三号01组-H (YAOGAN-43 O1H)
卫星状态:
在轨 (已飞行647 天)
发射日期:
2024-08-16 UTC
国别 :
中国 (CN)
星等 :
--
Orbit Information
数据来源 国际轨道数据 AOE轨道数据
星历时间 2026-05-24T11:34:37+0800
20小时前
查看轨道信息
2026-05-22T02:00:00+0800
3天前
查看轨道信息
半长轴 6861.905km 6862.046km
偏心率 0.0007523 0.0007868
轨道倾角 34.992° 34.992°
近地点辐角 331.630° 308.455°
升交点赤经 309.411° 324.601°
平近点角 28.401° 158.900°
近地点 478.605km 478.509km
远地点 488.931km 489.309km
周期 94.282分钟 94.284分钟
每日圈数 15.2734 15.272932
Detailed Information
运营商:
中国空间技术研究院
运营商所在国:
中国
制造商(研发单位):
中国空间技术研究院
制造商所在国:
中国
使用方式:
暂无
Satellite Introduction
遥感四十三号卫星组分别由航天科技集团五院和八院等抓总研制,主要用于开展低轨星座系统新技术试验。
2D Orbit Map
3D Orbit Map
Orbit Altitude Analysis Chart
Orbit Inclination Analysis Chart
Orbit Comprehensive Analysis Chart
View Comprehensive Chart